Date String (YYYY-MM-DD hh:mm:ss) UTC,Instrument flags,absolute air pressure of the measurement (hPa),sample flow rate (lpm),inlet stack bypass flow (lpm),air temperature of the measurement (°C),ambient temperature measured by the external sensor (°C),aerosol sample conditioner tube jacket temperature (°C),OPC LED temperature (°C),internal box temperature (°C),relative humidity of the measurement (%),span deviation,mass concentration of particles derived from Lorenz-Mie calculation of OPC scattering (μg/m³),mass concentration of particles derived from Lorenz-Mie calculation of OPC scattering (μg/m³),mass concentration of particles derived from Lorenz-Mie calculation of OPC scattering (μg/m³)
DateTimeUTC,F1_M11,P_M11,Q1_M11,Q2_M11,T1_M11,T2_M11,T3_M11,T4_M11,T5_M11,U1_M11,ZSPAN_M11,X0_M11,X2_M11,X1_M11
2024-05-17 21:00:00,SystemResetWarning,0820.8,4.99,000.00,023.2,021.8,000.0,031.6,024.8,015.0,0000.0,0006.82,0003.18,0002.32
2024-05-17 21:01:00,SystemResetWarning,0820.8,5.00,000.00,023.3,022.2,000.0,031.5,025.0,014.5,0000.0,0006.91,0003.18,0002.31
2024-05-17 21:02:00,SystemResetWarning,0820.8,5.01,000.00,023.4,022.6,000.0,031.5,025.1,015.3,0000.0,0007.23,0003.17,0002.29
2024-05-17 21:03:00,SystemResetWarning,0820.8,5.00,000.00,023.5,022.9,000.0,031.5,025.3,014.3,0000.0,0007.15,0003.15,0002.26
2024-05-17 21:04:00,SystemResetWarning,0820.8,5.00,000.00,023.5,023.2,000.0,031.6,025.5,014.3,0000.0,0007.20,0003.15,0002.23
2024-05-17 21:05:00,SystemResetWarning,0820.8,4.99,000.00,023.6,022.9,000.0,031.6,025.3,014.2,0000.0,0006.51,0003.11,0002.21
2024-05-17 21:06:00,SystemResetWarning,0820.8,4.99,000.00,023.4,021.2,000.0,031.7,024.5,014.7,0000.0,0007.34,0003.10,0002.20
2024-05-17 21:07:00,SystemResetWarning,0820.9,5.02,000.00,023.2,020.8,000.0,031.7,024.2,014.6,0000.0,0007.49,0003.14,0002.19
2024-05-17 21:08:00,SystemResetWarning,0820.8,4.99,000.00,023.2,021.4,000.0,031.7,024.5,014.1,0000.0,0007.33,0003.13,0002.18
2024-05-17 21:09:00,SystemResetWarning,0820.8,4.99,000.00,023.2,021.8,000.0,031.6,024.7,014.2,0000.0,0007.32,0003.13,0002.17
2024-05-17 21:10:00,SystemResetWarning,0820.8,5.01,000.00,023.3,022.2,000.0,031.5,024.9,015.2,0000.0,0007.30,0003.13,0002.18
2024-05-17 21:11:00,SystemResetWarning,0820.8,5.01,000.00,023.4,022.6,000.0,031.5,025.1,015.0,0000.0,0007.04,0003.13,0002.18
2024-05-17 21:12:00,SystemResetWarning,0821.0,4.99,000.00,023.5,022.9,000.0,031.5,025.3,014.5,0000.0,0007.11,0003.15,0002.20
2024-05-17 21:13:00,SystemResetWarning,0820.8,5.00,000.00,023.5,023.2,000.0,031.6,025.5,013.9,0000.0,0006.90,0003.16,0002.21
2024-05-17 21:14:00,SystemResetWarning,0820.8,4.99,000.00,023.6,023.0,000.0,031.6,025.3,014.2,0000.0,0006.96,0003.18,0002.21
2024-05-17 21:15:00,SystemResetWarning,0820.8,5.00,000.00,023.4,021.4,000.0,031.7,024.4,014.3,0000.0,0007.27,0003.18,0002.22
2024-05-17 21:16:00,SystemResetWarning,0820.7,5.01,000.00,023.2,020.9,000.0,031.7,024.1,014.7,0000.0,0007.65,0003.18,0002.23
2024-05-17 21:17:00,SystemResetWarning,0820.8,5.01,000.00,023.2,021.4,000.0,031.7,024.5,014.1,0000.0,0006.96,0003.17,0002.22
2024-05-17 21:18:00,SystemResetWarning,0820.8,4.99,000.00,023.2,021.8,000.0,031.6,024.7,014.3,0000.0,0006.15,0003.10,0002.23
2024-05-17 21:19:00,SystemResetWarning,0820.8,5.00,000.00,023.3,022.2,000.0,031.5,024.9,014.3,0000.0,0006.61,0003.13,0002.24
2024-05-17 21:20:00,SystemResetWarning,0820.7,5.00,000.00,023.4,022.6,000.0,031.5,025.1,014.7,0000.0,0007.15,0003.11,0002.23
2024-05-17 21:21:00,SystemResetWarning,0820.8,5.00,000.00,023.5,022.9,000.0,031.5,025.3,014.2,0000.0,0007.27,0003.10,0002.22
2024-05-17 21:22:00,SystemResetWarning,0820.8,5.01,000.00,023.6,023.2,000.0,031.6,025.5,014.2,0000.0,0007.13,0003.10,0002.22
2024-05-17 21:23:00,SystemResetWarning,0820.8,5.01,000.00,023.6,023.1,000.0,031.6,025.4,014.1,0000.0,0007.24,0003.12,0002.21
2024-05-17 21:24:00,SystemResetWarning,0820.7,4.98,000.00,023.5,021.3,000.0,031.7,024.6,015.0,0000.0,0007.15,0003.12,0002.20
2024-05-17 21:25:00,SystemResetWarning,0820.5,5.02,000.00,023.2,020.6,000.0,031.7,024.2,014.8,0000.0,0007.11,0003.10,0002.19
2024-05-17 21:26:00,SystemResetWarning,0820.5,4.99,000.00,023.2,021.2,000.0,031.7,024.5,014.4,0000.0,0007.08,0003.13,0002.21
2024-05-17 21:27:00,SystemResetWarning,0820.4,4.99,000.00,023.2,021.7,000.0,031.6,024.7,014.2,0000.0,0006.78,0003.15,0002.22
2024-05-17 21:28:00,SystemResetWarning,0820.6,5.00,000.00,023.3,022.1,000.0,031.5,024.9,013.6,0000.0,0007.04,0003.19,0002.23
2024-05-17 21:29:00,SystemResetWarning,0820.6,5.01,000.00,023.3,022.5,000.0,031.5,025.1,014.0,0000.0,0007.21,0003.23,0002.23
2024-05-17 21:30:00,SystemResetWarning,0820.6,5.00,000.00,023.4,022.8,000.0,031.5,025.3,013.7,0000.0,0006.81,0003.20,0002.21
2024-05-17 21:31:00,SystemResetWarning,0820.7,5.00,000.00,023.5,023.1,000.0,031.5,025.4,013.8,0000.0,0006.26,0003.21,0002.22
2024-05-17 21:32:00,SystemResetWarning,0820.6,5.00,000.00,023.6,023.2,000.0,031.6,025.4,014.2,0000.0,0006.77,0003.23,0002.24
2024-05-17 21:33:00,SystemResetWarning,0820.6,4.98,000.00,023.5,021.5,000.0,031.7,024.6,013.7,0000.0,0007.37,0003.23,0002.23
2024-05-17 21:34:00,SystemResetWarning,0820.5,5.03,000.00,023.2,020.7,000.0,031.7,024.1,014.6,0000.0,0007.66,0003.20,0002.22
2024-05-17 21:35:00,SystemResetWarning,0820.6,4.99,000.00,023.1,021.3,000.0,031.7,024.4,014.6,0000.0,0008.00,0003.21,0002.22
2024-05-17 21:36:00,SystemResetWarning,0820.6,4.99,000.00,023.2,021.7,000.0,031.6,024.7,014.9,0000.0,0008.13,0003.20,0002.22
2024-05-17 21:37:00,SystemResetWarning,0820.6,5.02,000.00,023.2,022.1,000.0,031.5,024.9,014.9,0000.0,0008.35,0003.16,0002.22
2024-05-17 21:38:00,SystemResetWarning,0820.6,4.99,000.00,023.3,022.5,000.0,031.5,025.0,014.6,0000.0,0008.36,0003.16,0002.20
2024-05-17 21:39:00,SystemResetWarning,0820.6,4.99,000.00,023.4,022.8,000.0,031.5,025.2,014.9,0000.0,0008.31,0003.14,0002.18
2024-05-17 21:40:00,SystemResetWarning,0820.6,5.01,000.00,023.5,023.1,000.0,031.5,025.4,014.6,0000.0,0008.27,0003.13,0002.18
2024-05-17 21:41:00,SystemResetWarning,0820.6,5.00,000.00,023.6,023.4,000.0,031.6,025.5,014.2,0000.0,0008.32,0003.15,0002.18
2024-05-17 21:42:00,SystemResetWarning,0820.6,4.99,000.00,023.6,022.8,000.0,031.7,025.2,014.6,0000.0,0009.04,0003.15,0002.18
2024-05-17 21:43:00,SystemResetWarning,0820.6,5.00,000.00,023.4,021.1,000.0,031.7,024.4,014.6,0000.0,0008.74,0003.13,0002.17
2024-05-17 21:44:00,SystemResetWarning,0820.6,5.02,000.00,023.2,021.0,000.0,031.7,024.3,014.5,0000.0,0008.59,0003.13,0002.16
2024-05-17 21:45:00,SystemResetWarning,0820.6,4.99,000.00,023.2,021.5,000.0,031.6,024.6,014.8,0000.0,0008.33,0003.14,0002.16
2024-05-17 21:46:00,SystemResetWarning,0820.6,5.00,000.00,023.2,021.9,000.0,031.6,024.8,014.4,0000.0,0007.95,0003.15,0002.18
2024-05-17 21:47:00,SystemResetWarning,0820.6,5.00,000.00,023.3,022.3,000.0,031.5,025.0,014.6,0000.0,0008.26,0003.17,0002.17
2024-05-17 21:48:00,SystemResetWarning,0820.7,5.01,000.00,023.4,022.7,000.0,031.5,025.1,014.7,0000.0,0007.92,0003.17,0002.17
2024-05-17 21:49:00,SystemResetWarning,0820.6,4.98,000.00,023.5,023.0,000.0,031.5,025.3,014.2,0000.0,0008.26,0003.15,0002.17
2024-05-17 21:50:00,SystemResetWarning,0820.7,5.00,000.00,023.6,023.3,000.0,031.6,025.5,014.3,0000.0,0009.07,0003.14,0002.18
2024-05-17 21:51:00,SystemResetWarning,0820.7,5.00,000.00,023.6,022.8,000.0,031.7,025.2,014.1,0000.0,0009.31,0003.10,0002.16
2024-05-17 21:52:00,SystemResetWarning,0820.6,5.00,000.00,023.3,021.1,000.0,031.7,024.3,014.3,0000.0,0009.42,0003.08,0002.15
2024-05-17 21:53:00,SystemResetWarning,0820.6,5.01,000.00,023.1,020.9,000.0,031.7,024.2,014.7,0000.0,0008.90,0003.09,0002.15
2024-05-17 21:54:00,SystemResetWarning,0820.6,5.01,000.00,023.1,021.4,000.0,031.6,024.5,014.5,0000.0,0008.96,0003.09,0002.14
2024-05-17 21:55:00,SystemResetWarning,0820.6,4.99,000.00,023.2,021.8,000.0,031.5,024.7,014.4,0000.0,0009.29,0003.08,0002.14
2024-05-17 21:56:00,SystemResetWarning,0820.6,4.99,000.00,023.3,022.2,000.0,031.5,024.9,015.0,0000.0,0009.36,0003.01,0002.13
2024-05-17 21:57:00,SystemResetWarning,0820.7,5.00,000.00,023.3,022.5,000.0,031.5,025.1,014.2,0000.0,0009.49,0002.94,0002.11
2024-05-17 21:58:00,SystemResetWarning,0820.7,5.01,000.00,023.4,022.9,000.0,031.5,025.3,015.0,0000.0,0009.41,0002.91,0002.10
2024-05-17 21:59:00,SystemResetWarning,0820.6,4.99,000.00,023.6,023.1,000.0,031.5,025.4,014.9,0000.0,0009.29,0002.91,0002.09
